📊 Raw Sensor Data

Showing records 49201 to 49225 of 85,114 total

ID Distance (ft) Battery V Battery A Int Temp (°F) Int Humid (%) Ext Temp (°F) Solar V RSSI SNR Time Stamp
35926 -- 4.01 0 82 47 76 4.50 -81 9 03/24/2025 07:00 PM
35925 -- 4.08 5 85 45 76 4.50 -80 9 03/24/2025 06:45 PM
35924 -- 4.05 13 88 44 78 4.50 -81 8 03/24/2025 06:30 PM
35923 -- 4.08 20 90 44 79 4.50 -82 8 03/24/2025 06:16 PM
35922 -- 4.10 35 91 43 80 4.50 -82 9 03/24/2025 06:00 PM
35921 -- 4.04 0 92 42 81 5.10 -82 8 03/24/2025 05:46 PM
35920 -- 4.15 0 93 42 80 5.10 -83 9 03/24/2025 05:30 PM
35919 -- 4.04 0 94 41 80 5.10 -82 8 03/24/2025 05:15 PM
35918 -- 4.10 0 94 41 81 5.10 -83 8 03/24/2025 05:00 PM
35917 -- 4.04 0 96 40 81 5.10 -83 8 03/24/2025 04:45 PM
35916 -- 4.04 0 95 40 83 5.10 -83 8 03/24/2025 04:31 PM
35915 -- 4.04 0 96 39 82 5.10 -84 8 03/24/2025 04:15 PM
35914 -- 4.05 0 96 38 80 5.10 -84 9 03/24/2025 04:00 PM
35913 -- 4.04 0 94 38 80 5.10 -83 8 03/24/2025 03:45 PM
35912 -- 4.07 0 94 37 82 5.10 -84 9 03/24/2025 03:30 PM
35911 -- 4.13 0 91 38 80 5.10 -84 8 03/24/2025 03:15 PM
35910 -- 4.15 0 91 38 77 5.10 -83 9 03/24/2025 03:00 PM
35909 -- 4.04 0 93 36 79 5.10 -84 9 03/24/2025 02:45 PM
35908 -- 4.15 0 92 36 76 5.10 -83 9 03/24/2025 02:30 PM
35907 -- 4.04 0 90 36 76 5.10 -82 8 03/24/2025 02:16 PM
35906 -- 4.04 0 88 36 76 5.10 -82 8 03/24/2025 02:00 PM
35905 -- 4.04 0 86 37 77 5.10 -83 9 03/24/2025 01:45 PM
35904 -- 4.04 0 85 37 74 5.10 -83 8 03/24/2025 01:30 PM
35903 -- 4.04 0 84 37 76 5.10 -83 8 03/24/2025 01:15 PM
35902 -- 4.04 0 84 37 73 5.10 -83 8 03/24/2025 01:01 PM